TimeEST,TemperatureF,Dew PointF,Humidity,Sea Level PressureIn,VisibilityMPH,Wind Direction,Wind SpeedMPH,Gust SpeedMPH,PrecipitationIn,Events,Conditions,WindDirDegrees,DateUTC
12:53 AM,69.1,66.9,93,29.98,10.0,ESE,3.5,-,N/A,,Overcast,120,2012-12-08 05:53:00
1:53 AM,66.9,66.0,97,29.98,10.0,Calm,Calm,-,N/A,,Clear,0,2012-12-08 06:53:00
2:53 AM,66.9,64.9,93,29.97,10.0,SE,3.5,-,N/A,,Clear,140,2012-12-08 07:53:00
3:53 AM,66.9,64.9,93,29.97,10.0,Calm,Calm,-,N/A,,Clear,0,2012-12-08 08:53:00
4:53 AM,66.0,64.9,96,29.98,10.0,Calm,Calm,-,N/A,,Clear,0,2012-12-08 09:53:00
5:53 AM,64.9,64.0,97,29.99,9.0,Calm,Calm,-,N/A,,Clear,0,2012-12-08 10:53:00
6:53 AM,64.9,64.0,97,30.00,10.0,Calm,Calm,-,N/A,,Clear,0,2012-12-08 11:53:00
7:53 AM,66.9,64.9,93,30.02,10.0,Calm,Calm,-,N/A,,Clear,0,2012-12-08 12:53:00
8:53 AM,73.0,68.0,84,30.04,10.0,ESE,5.8,-,N/A,,Clear,120,2012-12-08 13:53:00
9:53 AM,77.0,68.0,74,30.04,10.0,ESE,9.2,-,N/A,,Clear,120,2012-12-08 14:53:00
10:53 AM,80.1,68.0,67,30.03,10.0,ESE,10.4,-,N/A,,Partly Cloudy,120,2012-12-08 15:53:00
11:53 AM,80.1,66.9,64,30.01,10.0,SSE,5.8,-,N/A,,Clear,160,2012-12-08 16:53:00
12:53 PM,80.1,66.0,62,29.99,10.0,Calm,Calm,-,N/A,,Partly Cloudy,0,2012-12-08 17:53:00
1:53 PM,82.0,64.9,56,29.96,10.0,South,4.6,-,N/A,,Partly Cloudy,170,2012-12-08 18:53:00
2:53 PM,80.1,66.0,62,29.95,10.0,West,6.9,-,N/A,,Overcast,270,2012-12-08 19:53:00
3:25 PM,71.6,69.8,94,29.97,1.8,SSW,9.2,-,0.08,Rain,Rain,210,2012-12-08 20:25:00
3:53 PM,71.1,69.1,93,29.98,1.8,South,5.8,-,0.33,Rain,Rain,190,2012-12-08 20:53:00
4:01 PM,71.6,69.8,94,29.98,3.0,SSW,3.5,-,0.02,Rain,Light Rain,200,2012-12-08 21:01:00
4:53 PM,72.0,69.1,91,29.98,10.0,NNW,6.9,-,0.04,,Overcast,340,2012-12-08 21:53:00
5:53 PM,71.1,68.0,90,30.00,10.0,Calm,Calm,-,N/A,,Overcast,0,2012-12-08 22:53:00
6:53 PM,70.0,68.0,93,30.01,10.0,NE,4.6,-,N/A,,Clear,50,2012-12-08 23:53:00
7:53 PM,69.1,68.0,96,30.02,10.0,ENE,5.8,-,N/A,,Clear,60,2012-12-09 00:53:00
8:53 PM,69.1,66.9,93,30.04,10.0,Calm,Calm,-,N/A,,Clear,0,2012-12-09 01:53:00
9:53 PM,69.1,66.9,93,30.05,10.0,NE,3.5,-,N/A,,Mostly Cloudy,50,2012-12-09 02:53:00
10:53 PM,69.1,66.9,93,30.05,10.0,NE,3.5,-,N/A,,Mostly Cloudy,50,2012-12-09 03:53:00
11:53 PM,68.0,66.9,96,30.05,10.0,Calm,Calm,-,0.00,,Clear,0,2012-12-09 04:53:00